| time (UTC) | temp C | wind direction | speed KPH | gust KPH | rain 1hr cm | rain 24hr cm | rain mn cm | humidity % | barometer mb |
| 20260508084541 | 7 | 0 | 0.0 | 0.0 | 0.00 | 1.22 | 0.00 | 90 | 1016.7 |
| 20260508083056 | 7 | 0 | 0.0 | 0.0 | 0.00 | 1.22 | 0.00 | 90 | 1016.7 |
| 20260508081552 | 7 | 0 | 0.0 | 0.0 | 0.00 | 1.22 | 0.00 | 91 | 1016.6 |
| 20260508080036 | 8 | 0 | 0.0 | 0.0 | 0.00 | 1.22 | 0.00 | 90 | 1016.4 |
| 20260508074534 | 8 | 0 | 0.0 | 0.0 | 0.00 | 1.30 | 0.00 | 91 | 1016.5 |
| 20260508073043 | 8 | 0 | 0.0 | 0.0 | 0.00 | 1.30 | 0.00 | 91 | 1016.4 |
| 20260508071538 | 7 | 0 | 0.0 | 0.0 | 0.00 | 1.30 | 0.00 | 93 | 1016.3 |
| 20260508070135 | 7 | 0 | 0.0 | 0.0 | 0.00 | 1.30 | 0.00 | 93 | 1016.2 |
| 20260508064543 | 7 | 0 | 0.0 | 0.0 | 0.00 | 1.32 | 0.00 | 92 | 1015.9 |
| 20260508063041 | 8 | 0 | 0.0 | 0.0 | 0.00 | 1.32 | 0.00 | 93 | 1016.1 |
| 20260508061544 | 8 | 0 | 0.0 | 0.0 | 0.00 | 1.32 | 0.00 | 93 | 1016.1 |
| 20260508060040 | 8 | 0 | 0.0 | 0.0 | 0.00 | 1.32 | 0.00 | 93 | 1016.1 |
| 20260508054537 | 8 | 0 | 0.0 | 0.0 | 0.00 | 1.40 | 0.00 | 92 | 1016.1 |
| 20260508053036 | 8 | 0 | 0.0 | 0.0 | 0.00 | 1.40 | 0.00 | 93 | 1016.1 |
| 20260508051535 | 8 | 0 | 0.0 | 0.0 | 0.00 | 1.40 | 0.00 | 93 | 1015.9 |
| 20260508050044 | 8 | 0 | 0.0 | 0.0 | 0.00 | 1.40 | 0.00 | 93 | 1015.8 |
| 20260508044552 | 8 | 0 | 0.0 | 0.0 | 0.00 | 1.42 | 0.00 | 93 | 1015.8 |
| 20260508043057 | 8 | 0 | 0.0 | 0.0 | 0.00 | 1.42 | 0.00 | 93 | 1015.8 |
| 20260508041540 | 8 | 0 | 0.0 | 0.0 | 0.00 | 1.42 | 0.00 | 93 | 1015.7 |
| 20260508040039 | 8 | 0 | 0.0 | 0.0 | 0.00 | 1.42 | 0.00 | 93 | 1015.6 |
| 20260508034542 | 8 | 0 | 0.0 | 0.0 | 0.00 | 1.47 | 1.42 | 92 | 1015.6 |
| 20260508033035 | 9 | 0 | 0.0 | 0.0 | 0.00 | 1.47 | 1.42 | 92 | 1015.5 |
| 20260508031551 | 9 | 0 | 0.0 | 0.0 | 0.00 | 1.47 | 1.42 | 92 | 1015.5 |
| 20260508030051 | 9 | 0 | 0.0 | 0.0 | 0.00 | 1.47 | 1.42 | 91 | 1015.1 |
| 20260508024544 | 10 | 0 | 0.0 | 0.0 | 0.00 | 1.57 | 1.42 | 91 | 1015.1 |
| 20260508023044 | 10 | 0 | 0.0 | 0.0 | 0.00 | 1.57 | 1.42 | 91 | 1015.0 |
| 20260508021541 | 10 | 0 | 0.0 | 0.0 | 0.00 | 1.57 | 1.42 | 90 | 1014.5 |
| 20260508020043 | 11 | 0 | 0.0 | 0.0 | 0.00 | 1.57 | 1.42 | 90 | 1014.5 |
| 20260508014543 | 11 | 0 | 0.0 | 0.0 | 0.00 | 1.63 | 1.42 | 88 | 1014.2 |
| 20260508013041 | 12 | 0 | 0.0 | 4.8 | 0.00 | 1.63 | 1.42 | 87 | 1014.0 |
| 20260508011540 | 12 | 0 | 0.0 | 0.0 | 0.00 | 1.63 | 1.42 | 92 | 1013.5 |
| 20260508010042 | 12 | 0 | 0.0 | 0.0 | 0.00 | 1.63 | 1.42 | 93 | 1013.3 |
| 20260508004534 | 12 | 0 | 0.0 | 0.0 | 0.00 | 1.68 | 1.42 | 93 | 1013.3 |
| 20260508003042 | 12 | 0 | 0.0 | 0.0 | 0.00 | 1.68 | 1.42 | 91 | 1013.2 |
| 20260508001546 | 13 | 0 | 0.0 | 0.0 | 0.00 | 1.68 | 1.42 | 92 | 1013.1 |
| 20260508000037 | 13 | 0 | 0.0 | 1.6 | 0.00 | 1.68 | 1.42 | 91 | 1013.3 |
| 20260507234547 | 13 | 0 | 0.0 | 0.0 | 0.00 | 1.68 | 1.42 | 88 | 1012.9 |
| 20260507233043 | 13 | 0 | 0.0 | 0.0 | 0.00 | 1.68 | 1.42 | 89 | 1012.8 |
| 20260507231542 | 13 | 0 | 0.0 | 0.0 | 0.00 | 1.68 | 1.42 | 88 | 1012.5 |
| 20260507230043 | 13 | 0 | 0.0 | 3.2 | 0.00 | 1.68 | 1.42 | 89 | 1012.4 |
| 20260507224538 | 13 | 34 | 1.6 | 6.4 | 0.00 | 1.68 | 1.42 | 89 | 1012.0 |
| 20260507223046 | 14 | 0 | 1.6 | 6.4 | 0.00 | 1.68 | 1.42 | 88 | 1011.8 |
| 20260507221535 | 14 | 0 | 0.0 | 4.8 | 0.00 | 1.68 | 1.42 | 88 | 1011.7 |
| 20260507220043 | 14 | 106 | 0.0 | 6.4 | 0.00 | 1.68 | 1.42 | 89 | 1011.7 |
| 20260507214541 | 14 | 0 | 0.0 | 11.3 | 0.00 | 1.68 | 1.42 | 89 | 1011.5 |
| 20260507213056 | 14 | 0 | 1.6 | 4.8 | 0.00 | 1.68 | 1.42 | 89 | 1011.5 |
| 20260507211537 | 14 | 67 | 1.6 | 6.4 | 0.00 | 1.68 | 1.42 | 90 | 1011.3 |
| 20260507210042 | 13 | 109 | 1.6 | 9.7 | 0.00 | 1.68 | 1.42 | 91 | 1011.3 |
| 20260507204540 | 13 | 98 | 4.8 | 14.5 | 0.03 | 1.68 | 1.42 | 90 | 1011.0 |
| 20260507203041 | 13 | 54 | 1.6 | 8.0 | 0.18 | 1.68 | 1.42 | 90 | 1011.3 |
| 20260507201546 | 14 | 42 | 3.2 | 12.9 | 0.48 | 1.68 | 1.42 | 91 | 1011.2 |
| 20260507200039 | 14 | 67 | 3.2 | 9.7 | 0.71 | 1.68 | 1.42 | 91 | 1011.2 |
| 20260507194545 | 13 | 25 | 3.2 | 9.7 | 0.69 | 1.65 | 1.40 | 92 | 1011.5 |
| 20260507193044 | 14 | 44 | 4.8 | 11.3 | 0.53 | 1.47 | 1.24 | 92 | 1011.5 |
| 20260507191556 | 15 | 23 | 3.2 | 14.5 | 0.20 | 1.17 | 0.91 | 90 | 1011.3 |
| 20260507190042 | 15 | 22 | 3.2 | 9.7 | 0.00 | 0.97 | 0.71 | 87 | 1010.6 |
| 20260507184539 | 16 | 61 | 3.2 | 9.7 | 0.00 | 0.97 | 0.71 | 86 | 1011.2 |
| 20260507183047 | 16 | 96 | 1.6 | 8.0 | 0.00 | 0.97 | 0.71 | 86 | 1011.0 |
| 20260507181543 | 16 | 101 | 3.2 | 9.7 | 0.00 | 0.97 | 0.71 | 86 | 1010.9 |
| 20260507180043 | 16 | 63 | 1.6 | 8.0 | 0.00 | 0.97 | 0.71 | 85 | 1011.1 |
| 20260507174544 | 17 | 25 | 1.6 | 4.8 | 0.00 | 1.02 | 0.71 | 87 | 1010.9 |
| 20260507173051 | 17 | 0 | 1.6 | 6.4 | 0.00 | 1.02 | 0.71 | 87 | 1010.9 |
| 20260507171549 | 17 | 130 | 1.6 | 9.7 | 0.00 | 1.02 | 0.71 | 86 | 1011.2 |
| 20260507170045 | 17 | 63 | 0.0 | 6.4 | 0.00 | 1.02 | 0.71 | 88 | 1011.3 |
| 20260507164555 | 17 | 60 | 3.2 | 11.3 | 0.00 | 1.02 | 0.71 | 88 | 1011.2 |
| 20260507163042 | 17 | 24 | 3.2 | 11.3 | 0.00 | 1.02 | 0.71 | 89 | 1011.0 |
| 20260507161542 | 20 | 0 | 0.0 | 0.0 | 0.00 | 1.02 | 0.71 | 85 | 1010.6 |
| 20260507160047 | 18 | 0 | 0.0 | 0.0 | 0.00 | 1.02 | 0.71 | 89 | 1010.8 |
| 20260507154544 | 18 | 0 | 0.0 | 0.0 | 0.00 | 1.02 | 0.71 | 91 | 1011.2 |
| 20260507153042 | 18 | 0 | 0.0 | 0.0 | 0.00 | 1.02 | 0.71 | 92 | 1011.3 |
| 20260507151542 | 17 | 0 | 0.0 | 0.0 | 0.00 | 1.02 | 0.71 | 93 | 1011.6 |
| 20260507150048 | 17 | 240 | 0.0 | 3.2 | 0.00 | 1.02 | 0.71 | 93 | 1011.9 |
| 20260507144543 | 17 | 0 | 0.0 | 3.2 | 0.00 | 1.02 | 0.71 | 93 | 1011.8 |
| 20260507143104 | 17 | 0 | 0.0 | 3.2 | 0.00 | 1.02 | 0.71 | 92 | 1011.1 |
| 20260507141600 | 17 | 0 | 0.0 | 3.2 | 0.00 | 1.02 | 0.71 | 93 | 1011.1 |
| 20260507140050 | 17 | 0 | 0.0 | 3.2 | 0.08 | 1.02 | 0.71 | 94 | 1011.3 |
| 20260507134542 | 17 | 0 | 0.0 | 1.6 | 0.13 | 1.02 | 0.71 | 94 | 1011.5 |
| 20260507133043 | 16 | 0 | 0.0 | 0.0 | 0.20 | 1.02 | 0.71 | 94 | 1011.4 |
| 20260507131552 | 16 | 0 | 0.0 | 3.2 | 0.30 | 0.99 | 0.69 | 94 | 1011.2 |
| 20260507130050 | 16 | 0 | 0.0 | 3.2 | 0.33 | 0.94 | 0.64 | 94 | 1011.3 |
| 20260507124539 | 16 | 240 | 0.0 | 6.4 | 0.36 | 0.89 | 0.58 | 94 | 1011.9 |
| 20260507123050 | 16 | 0 | 0.0 | 4.8 | 0.30 | 0.81 | 0.51 | 94 | 1012.6 |
| 20260507121547 | 16 | 275 | 0.0 | 4.8 | 0.18 | 0.69 | 0.38 | 94 | 1012.4 |
| 20260507120048 | 16 | 0 | 0.0 | 1.6 | 0.10 | 0.61 | 0.30 | 94 | 1011.9 |
| 20260507114536 | 16 | 0 | 0.0 | 0.0 | 0.03 | 0.53 | 0.23 | 94 | 1012.4 |
| 20260507113045 | 16 | 0 | 0.0 | 0.0 | 0.00 | 0.51 | 0.20 | 94 | 1011.9 |
| 20260507111543 | 16 | 0 | 0.0 | 0.0 | 0.00 | 0.51 | 0.20 | 94 | 1011.8 |
| 20260507110046 | 16 | 0 | 0.0 | 0.0 | 0.00 | 0.51 | 0.20 | 94 | 1011.6 |
| 20260507104543 | 16 | 0 | 0.0 | 0.0 | 0.00 | 0.51 | 0.20 | 94 | 1011.5 |
| 20260507103039 | 16 | 0 | 0.0 | 0.0 | 0.00 | 0.51 | 0.20 | 94 | 1011.5 |
| 20260507101537 | 16 | 0 | 0.0 | 0.0 | 0.00 | 0.51 | 0.20 | 94 | 1011.2 |
| 20260507100054 | 16 | 0 | 0.0 | 0.0 | 0.00 | 0.51 | 0.20 | 94 | 1011.5 |
| 20260507094544 | 16 | 0 | 0.0 | 0.0 | 0.00 | 0.51 | 0.20 | 94 | 1011.6 |
| 20260507093040 | 16 | 0 | 0.0 | 0.0 | 0.00 | 0.51 | 0.20 | 94 | 1011.6 |
| 20260507091541 | 16 | 0 | 0.0 | 0.0 | 0.00 | 0.51 | 0.20 | 94 | 1011.7 |